Voltar ao catálogo

STARLINK-35424

AtivoComunicaçõesVLEO
NORAD 66460·PAYLOAD·🇺🇸 United States

Lançado Nov 15, 2025 de Cape Canaveral Space Force Station

Loading…

Próximas Passagens (próximas 24 horas)

TLE

AtualizadoSource: CelesTrak SupGP

Época: Sep 14, 2026, 23:21 UTC

1 66460C 25262E   26257.97340278  .00019827  00000+0  71834-3 0  2570
2 66460  43.0003 307.0632 0001514 269.6385 192.5173 15.27559539    15

Acompanhe STARLINK-35424 em tempo real com AllMySat

Download on the App Store